Location: *
(51.1248°S, 108.4023°W)
Time: 04:50:26
(UTC+00:00)

Okean-O - Pass Details

Date: 15 June 2021
Orbit: 638 x 640 km, 98.2° (Epoch: 31 July)

Event Time Altitude Azimuth Distance (km) Brightness Sun altitude
Rises 14:31:06 0° 360° (N) 2,945 6.5 -6.8°
Reaches altitude 10° 14:33:22 10° 353° (N) 2,044 5.5 -6.5°
Maximum altitude 14:37:40 46° 279° (W) 876 3.0 -5.9°
Drops below altitude 10° 14:42:01 10° 205° (SSW) 2,072 4.8 -5.3°
Sets 14:44:20 0° 199° (SSW) 2,990 5.6 -5.0°
